Weather History for Hurghada, Egypt

Change the Weather History Date:

Monday, March 17, 2014

  Actual Average Record
Temperature  
Mean Temperature 72 °F -  
Max Temperature 84 °F 78 °F 84 °F (2014)
Min Temperature 60 °F 61 °F 51 °F (2004)
Cooling Degree Days 7    
Growing Degree Days 22 (Base 50)    
Moisture  
Dew Point 57 °F    
Average Humidity 63    
Maximum Humidity 88    
Minimum Humidity 23    
Precipitation  
Precipitation 0.00 in - - ()
Sea Level Pressure  
Sea Level Pressure 29.95 in    
Wind  
Wind Speed 3 mph ()    
Max Wind Speed 12 mph    
Max Gust Speed -    
Visibility 6.0 miles    
Events      
Averages and records for this station are not official NWS values.
T = Trace of Precipitation, MM = Missing Value Source: Averaged Metar Reports

Daily Weather History Graph

Daily Weather History Graph

Search for Another Location

Airport:

Trip Planner

Search our weather history database for the weather conditions in past years. The results will help you decide how hot, cold, wet, or windy it might be!

Date:

Astronomy

Mar. 17, 2014 Rise Set
Actual Time 5:52 AM EET 5:54 PM EET
Civil Twilight 5:29 AM EET 6:17 PM EET
Nautical Twilight 5:02 AM EET 6:44 PM EET
Astronomical Twilight 4:35 AM EET 7:11 PM EET
Moon 6:42 PM EET (3/17) 6:02 AM EET (3/17)
Length of Visible Light 12h 48m
Length of Day
12h 02m
Full, 100% of the Moon is Illuminated
Mar 17
Full
Mar 24
Last Quarter
Mar 30
New
Apr 7
First Quarter
Apr 15
Full

Hourly Weather History & Observations

Time (EET) Temp. Heat Index Dew Point Humidity Pressure Visibility Wind Dir Wind Speed Gust Speed Precip Events Conditions
12:00 AM 66.2 °F - 55.4 °F 68% 30.04 in - Calm Calm - N/A   Clear
1:00 AM 64.4 °F - 53.6 °F 68% 30.01 in - Calm Calm - N/A   Clear
2:00 AM 62 °F - 54 °F 68% 30.01 in 6 mi Calm Calm - -  
2:00 AM 60.8 °F - 50.0 °F 68% 30.01 in - Calm Calm - N/A   Clear
3:00 AM 60.8 °F - 53.6 °F 77% 29.98 in - South 4.6 mph - N/A   Clear
4:00 AM 60.8 °F - 55.4 °F 82% 29.95 in - South 4.6 mph - N/A   Clear
5:00 AM 60.8 °F - 55.4 °F 82% 29.95 in - South 4.6 mph - N/A   Clear
6:00 AM 60.8 °F - 55.4 °F 82% 29.98 in - SSE 4.6 mph - N/A   Clear
7:00 AM 62.6 °F - 55.4 °F 77% 29.98 in - South 4.6 mph - N/A   Clear
8:00 AM 68 °F - 60 °F 70% 30.00 in 6 mi South 4.6 mph - -   Clear
8:00 AM 68.0 °F - 60.8 °F 78% 29.98 in - South 4.6 mph - N/A   Clear
9:00 AM - - - N/A% 29.98 in - North - - N/A   Clear
10:00 AM 77.0 °F - 64.4 °F 65% 29.98 in - SE 10.4 mph - N/A   Clear
11:00 AM 80 °F - 57 °F 34% 29.98 in 6 mi SE 10.4 mph - -  
11:00 AM 80.6 °F 80.8 °F 57.2 °F 45% 29.98 in - SE 10.4 mph - N/A   Clear
12:00 PM 82.4 °F - 51.8 °F 35% 29.95 in - SE 11.5 mph - N/A   Clear
1:00 PM 84.2 °F - 51.8 °F 33% 29.92 in - SE 11.5 mph - N/A   Clear
2:00 PM 83 °F - 51 °F 23% 29.92 in 6 mi ESE 9.2 mph - -  
2:00 PM 84.2 °F - 51.8 °F 33% 29.92 in - ESE 9.2 mph - N/A   Clear
3:00 PM 82.4 °F 82.5 °F 59.0 °F 45% 29.89 in - SE 11.5 mph - N/A   Clear
4:00 PM 82.4 °F 81.7 °F 55.4 °F 39% 29.89 in - ESE 6.9 mph - N/A   Clear
5:00 PM 81 °F - 59 °F 37% 29.91 in 6 mi East 6.9 mph - -   Clear
5:00 PM 80.6 °F 81.1 °F 59.0 °F 48% 29.89 in - East 6.9 mph - N/A   Clear
6:00 PM 71.6 °F - 57.2 °F 60% 29.89 in - Calm Calm - N/A   Clear
7:00 PM 71.6 °F - 62.6 °F 73% 29.89 in - Calm Calm - N/A   Clear
8:00 PM 71 °F - 64 °F 71% 29.92 in 6 mi Calm Calm - -  
8:00 PM 69.8 °F - 64.4 °F 83% 29.92 in - Calm Calm - N/A   Clear
9:00 PM 68.0 °F - 62.6 °F 83% 29.92 in - Calm Calm - N/A   Clear
10:00 PM 68.0 °F - 62.6 °F 83% 29.92 in - Calm Calm - N/A   Clear
11:00 PM 67 °F - 62 °F 79% 29.93 in 6 mi Calm Calm - -  
11:00 PM 66.2 °F - 62.6 °F 88% 29.92 in - Calm Calm - N/A   Clear